Location: Aalsum
(53.3404°N, 6.0062°E)
Time: 01:44:57
(UTC+00:00)

Cosmos 1241 Rocket - Pass Details

Date: 28 January 2023
Orbit: 928 x 1019 km, 65.8° (Epoch: 20 March)

Event Time Altitude Azimuth Distance (km) Brightness Sun altitude
Rises 18:37:39 0° 213° (SSW) 3,686 8.0 -21.7°
Reaches altitude 10° 18:40:12 10° 211° (SSW) 2,753 7.3 -22.0°
Maximum altitude 18:46:40 76° 127° (SE) 1,042 4.4 -23.0°
Enters shadow 18:49:21 38° 51° (NE) 1,497 5.1 -23.4°
